Detroit Lakes, MN

5:24 AM CST on February 22, 2017 (GMT -0600)
Detroit Lakes

Weather History for KDTL - March, 2013

Change the Weather History Date:

Saturday, March 9, 2013

  Actual Average Record
Temperature  
Mean Temperature 28 °F -  
Max Temperature 32 °F 33 °F 48 °F (1990)
Min Temperature 24 °F 8 °F -24 °F (1951)
Degree Days  
Heating Degree Days 37    
Moisture  
Dew Point 30 °F    
Average Humidity 98    
Maximum Humidity 100    
Minimum Humidity 80    
Precipitation  
Precipitation 0.26 in - - ()
Sea Level Pressure  
Sea Level Pressure 29.85 in    
Wind  
Wind Speed 7 mph (NNE)    
Max Wind Speed 21 mph    
Max Gust Speed 24 mph    
Visibility 3 miles    
Events Rain , Snow    
Averages and records for this station are not official NWS values.
T = Trace of Precipitation, MM = Missing Value Source: NWS Daily Summary

Daily Weather History Graph

Daily Weather History Graph

Search for Another Location

Airport or City:

Trip Planner

Search our weather history database for the weather conditions in past years. The results will help you decide how hot, cold, wet, or windy it might be!

Date:

Astronomy

Mar. 09, 2013 Rise Set
Actual Time 6:47 AM CST 6:21 PM CST
Civil Twilight 6:17 AM CST 6:51 PM CST
Nautical Twilight 5:42 AM CST 7:26 PM CST
Astronomical Twilight 5:06 AM CST 8:02 PM CST
Moon 5:18 AM CST (3/9) 4:19 PM CST (3/9)
Length of Visible Light 12h 34m
Length of Day
11h 33m
Waning Crescent, 5% of the Moon is Illuminated
Mar 9
Waning Crescent
Mar 11
New
Mar 19
First Quarter
Mar 27
Full
Apr 2
Last Quarter

Hourly Weather History & Observations

Time (CST) Temp. Windchill Dew Point Humidity Pressure Visibility Wind Dir Wind Speed Gust Speed Precip Events Conditions
12:16 AM 32.0 °F 24.8 °F 28.4 °F 87% 30.00 in 4.0 mi SE 8.1 mph - 0.01 in   Mostly Cloudy
12:35 AM 32.0 °F 26.4 °F 30.2 °F 93% 29.99 in 3.0 mi ESE 5.8 mph - 0.04 in   Overcast
12:55 AM 32.0 °F 27.5 °F 32.0 °F 100% 29.98 in 3.0 mi ESE 4.6 mph - 0.07 in   Overcast
1:16 AM 32.0 °F 26.4 °F 32.0 °F 100% 29.98 in 1.8 mi SSE 5.8 mph - 0.03 in Snow Light Snow
1:35 AM 32.0 °F 24.2 °F 32.0 °F 100% 29.97 in 1.0 mi SE 9.2 mph - 0.05 in Snow Light Snow
1:55 AM 32.0 °F 26.4 °F 32.0 °F 100% 29.95 in 0.8 mi SE 5.8 mph - 0.07 in Snow Snow
2:16 AM 32.0 °F 26.4 °F 32.0 °F 100% 29.94 in 1.2 mi SE 5.8 mph - 0.02 in Snow Light Snow
2:35 AM 32.0 °F 26.4 °F 32.0 °F 100% 29.93 in 1.2 mi SE 5.8 mph - 0.04 in Snow Light Snow
2:56 AM 32.0 °F 26.4 °F 32.0 °F 100% 29.92 in 1.5 mi SE 5.8 mph - 0.01 in Snow Light Snow
3:16 AM 32.0 °F 27.5 °F 32.0 °F 100% 29.91 in 1.5 mi SE 4.6 mph - 0.02 in Snow Light Snow
3:35 AM 32.0 °F 26.4 °F 32.0 °F 100% 29.90 in 1.5 mi SE 5.8 mph - 0.03 in Snow Light Snow
3:56 AM 32.0 °F 27.5 °F 32.0 °F 100% 29.89 in 1.8 mi ESE 4.6 mph - N/A Snow Light Snow
4:16 AM 32.0 °F 28.7 °F 32.0 °F 100% 29.89 in 1.8 mi ESE 3.5 mph - N/A Snow Light Snow
4:35 AM 32.0 °F 28.7 °F 32.0 °F 100% 29.88 in 2.0 mi ESE 3.5 mph - N/A   Overcast
4:56 AM 32.0 °F 27.5 °F 32.0 °F 100% 29.88 in 1.8 mi SE 4.6 mph - N/A   Overcast
5:16 AM 32.0 °F 28.7 °F 32.0 °F 100% 29.88 in 1.8 mi ESE 3.5 mph - 0.01 in   Overcast
5:35 AM 32.0 °F - 32.0 °F 100% 29.88 in 1.8 mi Calm Calm - 0.01 in   Overcast
5:56 AM 32.0 °F - 32.0 °F 100% 29.88 in 2.0 mi Calm Calm - N/A   Overcast
6:16 AM 32.0 °F 28.7 °F 32.0 °F 100% 29.87 in 2.0 mi East 3.5 mph - N/A   Overcast
6:35 AM 32.0 °F - 32.0 °F 100% 29.86 in 2.0 mi Calm Calm - N/A   Overcast
6:56 AM 32.0 °F - 32.0 °F 100% 29.86 in 2.0 mi Calm Calm - N/A   Overcast
7:15 AM 32.0 °F 28.7 °F 32.0 °F 100% 29.84 in 1.2 mi East 3.5 mph - N/A   Overcast
7:35 AM 32.0 °F 28.7 °F 32.0 °F 100% 29.85 in 1.8 mi ESE 3.5 mph - N/A   Overcast
7:55 AM 32.0 °F 28.7 °F 32.0 °F 100% 29.85 in 1.8 mi SE 3.5 mph - N/A   Overcast
8:15 AM 32.0 °F - 32.0 °F 100% 29.84 in 1.8 mi Calm Calm - N/A   Overcast
8:35 AM 32.0 °F 28.7 °F 32.0 °F 100% 29.82 in 1.2 mi ENE 3.5 mph - N/A   Overcast
8:55 AM 32.0 °F 28.7 °F 32.0 °F 100% 29.81 in 1.5 mi East 3.5 mph - N/A   Overcast
9:15 AM 32.0 °F - 32.0 °F 100% 29.81 in 1.5 mi Calm Calm - N/A   Overcast
9:36 AM 32.0 °F - 32.0 °F 100% 29.81 in 1.8 mi Calm Calm - N/A   Overcast
9:56 AM 32.0 °F - 32.0 °F 100% 29.80 in 2.0 mi Calm Calm - N/A   Overcast
10:15 AM 32.0 °F - 32.0 °F 100% 29.79 in 2.0 mi Calm Calm - N/A   Overcast
10:36 AM 32.0 °F 28.7 °F 32.0 °F 100% 29.78 in 2.0 mi ENE 3.5 mph - N/A   Overcast
10:56 AM 32.0 °F 28.7 °F 32.0 °F 100% 29.78 in 2.5 mi East 3.5 mph - N/A   Overcast
11:15 AM 32.0 °F 28.7 °F 32.0 °F 100% 29.79 in 2.5 mi ESE 3.5 mph - N/A   Overcast
11:36 AM 32.0 °F 28.7 °F 32.0 °F 100% 29.79 in 2.5 mi ENE 3.5 mph - N/A   Overcast
11:56 AM 32.0 °F 28.7 °F 32.0 °F 100% 29.79 in 2.5 mi ENE 3.5 mph - N/A   Overcast
12:15 PM 32.0 °F - 32.0 °F 100% 29.78 in 2.5 mi Calm Calm - N/A   Overcast
12:36 PM 32.0 °F - 32.0 °F 100% 29.79 in 2.5 mi Calm Calm - N/A   Overcast
12:56 PM 32.0 °F - 32.0 °F 100% 29.77 in 2.5 mi Calm Calm - N/A   Overcast
1:15 PM 32.0 °F 27.5 °F 32.0 °F 100% 29.76 in 2.0 mi NNE 4.6 mph - N/A   Overcast
1:36 PM 32.0 °F 27.5 °F 32.0 °F 100% 29.75 in 2.5 mi NNE 4.6 mph - N/A Snow Light Snow
1:56 PM 32.0 °F - 32.0 °F 100% 29.75 in 2.0 mi Calm Calm - N/A Rain Light Rain
2:15 PM 32.0 °F - 32.0 °F 100% 29.75 in 1.2 mi Calm Calm - N/A   Overcast
2:36 PM 32.0 °F 25.6 °F 32.0 °F 100% 29.75 in 1.0 mi NNW 6.9 mph - 0.01 in   Overcast
2:56 PM 32.0 °F 24.8 °F 32.0 °F 100% 29.75 in 1.2 mi NNW 8.1 mph - N/A Snow Light Snow
3:15 PM 32.0 °F 23.0 °F 32.0 °F 100% 29.74 in 1.2 mi North 11.5 mph - N/A Snow Light Snow
3:36 PM 32.0 °F 22.1 °F 32.0 °F 100% 29.75 in 1.0 mi NNW 13.8 mph - 0.01 in Snow Light Snow
3:56 PM 32.0 °F 23.0 °F 32.0 °F 100% 29.76 in 1.2 mi NNW 11.5 mph - N/A Snow Light Snow
4:15 PM 32.0 °F 23.0 °F 32.0 °F 100% 29.77 in 1.2 mi NNW 11.5 mph - 0.01 in Snow Light Snow
4:36 PM 32.0 °F 20.8 °F 32.0 °F 100% 29.77 in 1.0 mi NNW 17.3 mph - 0.01 in Snow Light Snow
4:56 PM 32.0 °F 21.6 °F 32.0 °F 100% 29.77 in 0.8 mi NNW 15.0 mph - N/A Snow Light Snow
5:15 PM 32.0 °F 21.2 °F 32.0 °F 100% 29.77 in 1.0 mi NNW 16.1 mph - 0.01 in Snow Light Snow
5:36 PM 32.0 °F 21.6 °F 30.2 °F 93% 29.78 in 1.2 mi NNW 15.0 mph 21.9 mph 0.01 in Snow Light Snow
5:55 PM 30.2 °F 19.8 °F 28.4 °F 93% 29.80 in 1.2 mi NW 13.8 mph - 0.01 in Snow Light Snow
6:16 PM 30.2 °F 20.2 °F 30.2 °F 100% 29.81 in 1.5 mi NNW 12.7 mph 18.4 mph N/A Snow Light Snow
6:35 PM 30.2 °F 18.9 °F 30.2 °F 100% 29.82 in 2.5 mi NNW 16.1 mph - N/A Snow Light Snow
6:55 PM 30.2 °F 19.8 °F 30.2 °F 100% 29.82 in 2.5 mi NNW 13.8 mph - N/A Snow Light Snow
7:16 PM 30.2 °F 20.2 °F 28.4 °F 93% 29.83 in 3.0 mi NNW 12.7 mph - N/A Snow Light Snow
7:35 PM 30.2 °F 20.8 °F 30.2 °F 100% 29.83 in 4.0 mi North 11.5 mph - N/A Snow Light Snow
7:55 PM 30.2 °F 19.8 °F 28.4 °F 93% 29.84 in 4.0 mi NNW 13.8 mph - N/A Snow Light Snow
8:16 PM 28.4 °F 15.1 °F 26.6 °F 93% 29.86 in 4.0 mi NW 20.7 mph 24.2 mph N/A   Overcast
8:35 PM 26.6 °F 14.3 °F 26.6 °F 100% 29.87 in 5.0 mi NNW 16.1 mph 21.9 mph N/A   Overcast
8:55 PM 26.6 °F 14.3 °F 24.8 °F 93% 29.88 in 7.0 mi NNW 16.1 mph - N/A   Overcast
9:15 PM 26.6 °F 15.7 °F 24.8 °F 93% 29.88 in 7.0 mi NNW 12.7 mph - N/A   Overcast
9:35 PM 26.6 °F 14.3 °F 23.0 °F 86% 29.89 in 10.0 mi NNW 16.1 mph 24.2 mph N/A   Overcast
9:56 PM 26.6 °F 13.8 °F 21.2 °F 80% 29.89 in 10.0 mi NNW 17.3 mph - N/A   Overcast
10:15 PM 26.6 °F 13.8 °F 21.2 °F 80% 29.89 in 10.0 mi NNW 17.3 mph 23.0 mph N/A   Overcast
10:35 PM 26.6 °F 15.7 °F 21.2 °F 80% 29.90 in 10.0 mi NNW 12.7 mph - N/A   Overcast
10:56 PM 26.6 °F 13.1 °F 23.0 °F 86% 29.91 in 10.0 mi NNW 19.6 mph 23.0 mph N/A   Overcast
11:15 PM 24.8 °F 11.5 °F 23.0 °F 93% 29.92 in 7.0 mi NNW 17.3 mph 23.0 mph N/A   Overcast
11:35 PM 24.8 °F 11.5 °F 23.0 °F 93% 29.93 in 7.0 mi NNW 17.3 mph 21.9 mph N/A   Overcast
11:56 PM 24.8 °F 11.5 °F 23.0 °F 93% 29.93 in 7.0 mi NNW 17.3 mph 23.0 mph N/A   Overcast